Location: Arcueil
(48.7999°N, 2.3326°E)
Time: 11:11:15
(UTC+00:00)

EO-79 - Visible Passes

Search period start: 18 June 2024 00:00
Search period end: 28 June 2024 00:00
Orbit: 559 x 576 km, 98.0° (Epoch: 17 June)

Date Brightness Start Highest point End Pass type
(mag) Time Alt. Az. Time Alt. Az. Time Alt. Az.
18 Jun ? 02:33:06 10° NE 02:36:37 28° E 02:40:06 10° SSE visible
19 Jun ? 02:34:10 10° NE 02:37:42 29° E 02:41:14 10° SSE visible
20 Jun ? 02:35:14 10° NE 02:38:47 30° E 02:42:19 10° SSE visible
21 Jun ? 02:36:17 10° NNE 02:39:52 30° E 02:43:25 10° SSE visible
22 Jun ? 02:37:19 10° NNE 02:40:56 31° E 02:44:30 10° SSE visible
23 Jun ? 02:38:21 10° NNE 02:41:57 31° E 02:45:34 10° SSE visible
24 Jun ? 02:39:23 10° NNE 02:43:00 32° E 02:46:36 10° SSE visible
25 Jun ? 02:40:22 10° NNE 02:44:02 33° E 02:47:39 10° SSE visible
26 Jun ? 02:41:22 10° NNE 02:45:02 33° E 02:48:41 10° SSE visible
27 Jun ? 02:42:21 10° NNE 02:46:02 34° E 02:49:41 10° SSE visible
